Location: Birkenwerder
(52.6919°N, 13.2774°E)
Time: 23:34:20
(UTC+00:00)

Cosmos 1570 Rocket - Pass Details

Date: 06 October 2020
Orbit: 763 x 788 km, 74.1° (Epoch: 24 October)

Event Time Altitude Azimuth Distance (km) Brightness Sun altitude
Exits shadow 02:49:19 30° 310° (NW) 1,388 5.1 -22.8°
Maximum altitude 02:49:23 30° 311° (NW) 1,388 5.1 -22.8°
Drops below altitude 10° 02:54:06 10° 12° (NNE) 2,364 6.9 -22.1°
Sets 02:56:48 0° 24° (NNE) 3,296 7.9 -21.8°
